Brownsville, TX

7:16 PM CDT on October 19, 2017 (GMT -0500)
Brownsville-South Padre I International

Weather History for KBRO - February, 2014

Change the Weather History Date:

Sunday, February 23, 2014

  Actual Average Record
Temperature  
Mean Temperature 75 °F 65 °F  
Max Temperature 80 °F 75 °F 92 °F (1917)
Min Temperature 69 °F 56 °F 25 °F (1901)
Degree Days  
Heating Degree Days 0 3  
Month to date heating degree days 148 92  
Since 1 July heating degree days 706 491  
Cooling Degree Days 10 3  
Month to date cooling degree days 78 64  
Year to date cooling degree days 99 123  
Growing Degree Days 24 (Base 50)    
Moisture  
Dew Point 70 °F    
Average Humidity 84    
Maximum Humidity 100    
Minimum Humidity 67    
Precipitation  
Precipitation T in 0.03 in 1.02 in (1923)
Month to date precipitation 0.08 0.91  
Year to date precipitation 0.76 2.18  
Sea Level Pressure  
Sea Level Pressure 29.92 in    
Wind  
Wind Speed 7 mph (SE)    
Max Wind Speed 14 mph    
Max Gust Speed 16 mph    
Visibility 6 miles    
Events Fog    
T = Trace of Precipitation, MM = Missing Value Source: NWS Daily Summary

Daily Weather History Graph

Daily Weather History Graph

Search for Another Location

Airport or City:

Trip Planner

Search our weather history database for the weather conditions in past years. The results will help you decide how hot, cold, wet, or windy it might be!

Date:

Astronomy

Feb. 23, 2014 Rise Set
Actual Time 6:58 AM CST 6:28 PM CST
Civil Twilight 6:35 AM CST 6:51 PM CST
Nautical Twilight 6:08 AM CST 7:18 PM CST
Astronomical Twilight 5:41 AM CST 7:44 PM CST
Moon 1:41 AM CST (2/23) 12:48 PM CST (2/23)
Length of Visible Light 12h 16m
Length of Day
11h 29m
Last Quarter, 38% of the Moon is Illuminated
Feb 23
Last Quarter
Mar 1
New
Mar 8
First Quarter
Mar 16
Full
Mar 23
Last Quarter

Hourly Weather History & Observations

Time (CST) Temp. Heat Index Dew Point Humidity Pressure Visibility Wind Dir Wind Speed Gust Speed Precip Events Conditions
12:53 AM 71.1 °F - 70.0 °F 96% 29.89 in 4.0 mi SSE 8.1 mph - N/A   Overcast
1:53 AM 71.1 °F - 70.0 °F 96% 29.89 in 5.0 mi SSE 9.2 mph - N/A   Overcast
2:53 AM 71.1 °F - 70.0 °F 96% 29.87 in 4.0 mi SSE 10.4 mph - N/A   Overcast
3:53 AM 71.1 °F - 70.0 °F 96% 29.87 in 4.0 mi South 8.1 mph - N/A   Overcast
4:21 AM 71.6 °F - 69.8 °F 94% 29.86 in 2.0 mi South 8.1 mph - N/A   Overcast
4:28 AM 71.6 °F - 69.8 °F 94% 29.86 in 1.5 mi South 6.9 mph - N/A   Overcast
4:53 AM 70.0 °F - 70.0 °F 100% 29.87 in 1.0 mi SSE 5.8 mph - N/A   Mist
5:01 AM 69.8 °F - 69.8 °F 100% 29.87 in 0.8 mi SSE 6.9 mph - N/A   Mist
5:09 AM 69.8 °F - 69.8 °F 100% 29.87 in 0.8 mi SSE 5.8 mph - N/A   Mist
5:53 AM 69.1 °F - 69.1 °F 100% 29.88 in 0.5 mi SSE 4.6 mph - N/A Fog Fog
6:32 AM 69.8 °F - 69.8 °F 100% 29.90 in 1.0 mi SE 3.5 mph - N/A   Mist
6:53 AM 69.1 °F - 69.1 °F 100% 29.91 in 1.5 mi SE 4.6 mph - N/A   Overcast
7:20 AM 69.8 °F - 69.8 °F 100% 29.92 in 0.5 mi ESE 4.6 mph - N/A Fog Fog
7:53 AM 70.0 °F - 69.1 °F 97% 29.92 in 1.0 mi ESE 3.5 mph - N/A   Mist
8:14 AM 69.8 °F - 69.8 °F 100% 29.93 in 3.0 mi ESE 4.6 mph - N/A   Overcast
8:53 AM 71.1 °F - 70.0 °F 96% 29.94 in 9.0 mi SE 4.6 mph - N/A   Overcast
9:02 AM 71.6 °F - 69.8 °F 94% 29.95 in 10.0 mi SE 4.6 mph - N/A   Overcast
9:24 AM 73.4 °F - 71.6 °F 94% 29.96 in 10.0 mi SSE 4.6 mph - N/A   Overcast
9:31 AM 73.4 °F - 71.6 °F 94% 29.96 in 10.0 mi SSE 10.4 mph - N/A   Overcast
9:45 AM 75.2 °F - 71.6 °F 89% 29.96 in 10.0 mi SSE 11.5 mph - N/A   Overcast
9:53 AM 75.9 °F - 71.1 °F 85% 29.96 in 10.0 mi SSE 12.7 mph - N/A   Mostly Cloudy
10:08 AM 75.2 °F - 69.8 °F 83% 29.97 in 10.0 mi SSE 11.5 mph - N/A   Overcast
10:16 AM 75.2 °F - 69.8 °F 83% 29.97 in 10.0 mi SE 11.5 mph - N/A   Overcast
10:53 AM 77.0 °F - 70.0 °F 79% 29.96 in 10.0 mi SSE 10.4 mph - N/A   Overcast
11:13 AM 77.0 °F - 69.8 °F 78% 29.97 in 10.0 mi SSE 10.4 mph - N/A   Overcast
11:53 AM 75.9 °F - 70.0 °F 82% 29.96 in 10.0 mi South 8.1 mph - N/A   Overcast
12:32 PM 77.0 °F - 69.8 °F 78% 29.94 in 10.0 mi SE 8.1 mph - 0.00 in   Overcast
12:53 PM 77.0 °F - 70.0 °F 79% 29.94 in 10.0 mi SE 8.1 mph - 0.00 in   Overcast
1:00 PM 77.0 °F - 69.8 °F 78% 29.94 in 10.0 mi SSE 8.1 mph - N/A   Overcast
1:29 PM 78.8 °F - 69.8 °F 74% 29.93 in 10.0 mi SE 5.8 mph - N/A   Overcast
1:53 PM 79.0 °F - 70.0 °F 74% 29.91 in 10.0 mi SSE 6.9 mph - N/A   Overcast
2:53 PM - - - N/A% 29.89 in 10.0 mi South 6.9 mph - N/A   Overcast
3:44 PM - - - N/A% 29.88 in 10.0 mi SE 8.1 mph - N/A   Overcast
3:53 PM - - - N/A% 29.88 in 10.0 mi SSE 9.2 mph - N/A   Overcast
4:24 PM 78.8 °F - 68.0 °F 69% 29.89 in 10.0 mi SE 10.4 mph - N/A   Overcast
4:53 PM 80.1 °F 82.7 °F 68.0 °F 67% 29.88 in 10.0 mi ESE 8.1 mph - N/A   Overcast
5:53 PM 77.0 °F - 70.0 °F 79% 29.90 in 10.0 mi ESE 5.8 mph - N/A   Overcast
6:53 PM 75.0 °F - 70.0 °F 84% 29.91 in 10.0 mi East 6.9 mph - N/A   Overcast
7:53 PM 73.0 °F - 70.0 °F 90% 29.93 in 10.0 mi East 5.8 mph - N/A   Overcast
8:31 PM 71.6 °F - 69.8 °F 94% 29.95 in 10.0 mi ESE 6.9 mph - N/A   Overcast
8:53 PM 72.0 °F - 70.0 °F 93% 29.95 in 9.0 mi ESE 5.8 mph - N/A   Overcast
9:12 PM 71.6 °F - 71.6 °F 100% 29.96 in 8.0 mi East 4.6 mph - N/A   Overcast
9:53 PM 72.0 °F - 71.1 °F 97% 29.97 in 5.0 mi ESE 3.5 mph - N/A   Overcast
10:23 PM 71.6 °F - 71.6 °F 100% 29.98 in 2.0 mi Calm Calm - N/A   Overcast
10:37 PM 71.6 °F - 71.6 °F 100% 29.97 in 1.8 mi ESE 5.8 mph - N/A   Overcast
10:53 PM 72.0 °F - 71.1 °F 97% 29.97 in 1.5 mi ESE 5.8 mph - N/A   Overcast
11:27 PM 71.6 °F - 71.6 °F 100% 29.97 in 0.8 mi East 3.5 mph - N/A   Mist
11:53 PM 72.0 °F - 71.1 °F 97% 29.96 in 0.8 mi Calm Calm - N/A   Mist